Regional Weather Roundup
Issued by NWS Newport/Morehead, NC

Current Version | Previous Version | Text Only | Print | Product List | Glossary Off
Versions: 1 2 3 4 5 6 7 8 9 10 11 12 13 14 15 16 17 18 19 20 21 22 23 24 25 26 27 28 29 30 31 32 33 34 35 36 37 38 39 40 41 42 43 44 45 46 47 48 49 50
726 ASUS42 KMHX 171925 RWRMHX WEATHER ROUNDUP FOR EASTERN NORTH CAROLINA NATIONAL WEATHER SERVICE NEWPORT/MOREHEAD CITY NC 200 PM EST WED JAN 17 2018 NOTE: "FAIR" INDICATES FEW OR NO CLOUDS BELOW 12,000 FEET WITH NO SIGNIFICANT WEATHER AND/OR OBSTRUCTIONS TO VISIBILITY NCZ015>017-031-032-045>047-102-103-172000- NORTH COAST CITY SKY/WX TMP DP RH WIND PRES REMARKS EDENTON CLOUDY 41 33 74 NE12 30.20F ELIZABETH CITY CLOUDY 37 34 89 N17 30.23F KITTY HAWK CLOUDY 36 36 99 N13G21 30.17F MANTEO CLOUDY 37 33 87 NE20G26 30.19F $$ NCZ045>047-081-094-103-104-172000- CENTRAL COAST CITY SKY/WX TMP DP RH WIND PRES REMARKS FRISCO CLOUDY 42 38 85 NE12G20 30.14F $$ NCZ095-097-098-100-101-172000- SOUTHERN COAST CITY SKY/WX TMP DP RH WIND PRES REMARKS BEAUFORT PTSUNNY 47 33 58 NE13 30.15F CEDAR ISLAND NOT AVBL JACKSONVILLE FAIR 53 33 46 E5 30.12F PINEY ISLAND NOT AVBL WILMINGTON FAIR 52 29 41 NE7 30.13F $$ NCZ011>013-027>030-043-044-078>080-089-090>093-098-172000- COASTAL PLAIN CITY SKY/WX TMP DP RH WIND PRES REMARKS AHOSKIE DRIZZLE 33 30 92 N12 30.24S CLINTON FAIR 41 32 70 N8 30.18F ELIZABETHTOWN NOT AVBL GOLDSBORO CLOUDY 40 28 61 N14 30.17F GREENVILLE PTSUNNY 43 32 65 N8 30.19F HAVELOCK NOT AVBL KENANSVILLE CLOUDY 43 30 61 N12 30.16F KINSTON CLOUDY 45 32 61 N10 30.18S NEW BERN FAIR 47 31 53 NE10 30.15F RICHLANDS PTSUNNY 52 31 44 N7 30.14F ROCKY MOUNT LGT SNOW 34 33 96 N9 30.22F FOG WASHINGTON CLOUDY 42 30 62 N12 30.18F WHITEVILLE CLOUDY 44 31 60 NE7 30.12F $$ AMZ130-135-150-152-154-156-158-170-250-252-270-ANZ085-086-088-633-658-670-172000- MARINE OBSERVATIONS STATION/POSITION TIME TEMP WIND PRES WAVE SWELL AIR SEA DIR/SP/G HT/PER HT/PER (UTC) (F) (DEG/KT/KT) (MB) (FT/S) (FT/S) CHESAPEAKE LIGHT NOT AVBL 64 E VA BEACH 1850 43 55 360/ 16/ 19 1023.1 7/11 5/11 DUCK 1900 35 39 10/ 18/ 22 1022.2 2 E DUCK 1830 40 N/A 6/11 3/11 OREGON INLET 1900 39 41 360/ 14/ 22 1021.7 13E OREGON INLT 1848 45 N/A 6/11 7/11 HATTERAS CG 1900 41 48 30/ 15/ 21 1020.3 DIAMOND BUOY 1910 48 72 10/ 19/ 25 1021.4 CAPE LOOKOUT 1900 10/ 17/ 20 1020.5 BEAUFORT LAB 1900 46 46 30/ 12/ 15 1020.9 30 SE NEW RVR IN 1908 52 58 70/ 16/ 19 1019.5 30 SE NEW RVR IN 1830 58 N/A 5/10 3/11 27 SE WRIGHTSVLE 1908 55 56 60/ 10/ 17 1019.2 5 SE WRIGHTSVLE 1808 48 47 30/ 6/ 10 1020.8 225 S CAPE HAT 1850 70 71 160/ 14/ 17 1017.0 8/10 7/10 41 SE CHARLESTON 1910 56 70 290/ 16/ 21 1019.0 $$

USA.gov is the U.S. government's official web portal to all federal, state and local government web resources and services.